#timestamp,LO_Frequency,Hit,StdDev 
1583737215.1,286047000.3,N
1583737235.9,286046998.1,N
1583737255.7,286046999.3,N
1583737275.6,286046997.7,N
1583737295.4,286046995.7,N
1583737315.2,286046993.5,Y
1583737335.1,286046994.1,P
1583737336.0,286046994.1,N
1583737355.8,286046995.4,N
1583737375.7,286046996.9,N
1583737395.5,286047001.0,N
1583737415.3,286046996.7,N
1583737435.2,286046998.5,N
1583737455.0,286046997.1,N
1583737455.9,286046997.1,N
1583737475.8,286046996.6,N
1583737495.6,286046998.4,N
1583737515.4,286047001.1,N
1583737535.3,286046999.9,N
1583737555.1,286046998.9,N
1583737575.8,286046996.5,N
1583737595.7,286046998.4,N
1583737615.5,286046996.9,N
1583737635.4,286046997.4,N
1583737655.2,286046998.1,N
1583737675.0,286047002.8,N
1583737675.9,286047002.8,N
1583737695.8,286047000.5,N
1583737715.6,286047000.5,N
1583737735.5,286046998.7,N
1583737755.3,286046999.0,N
1583737775.1,286047000.7,N
1583737795.9,286047001.0,N
1583737815.7,286047001.1,N
1583737835.5,286046999.0,N
1583737855.4,286046998.8,N
1583737875.2,286046997.2,N
1583737895.1,286046993.4,Y
1583737896.0,286046993.4,P
1583737915.8,286046995.5,N
1583737935.6,286046996.7,N
1583737955.5,286046999.6,N
1583737975.3,286046998.4,N
1583737995.2,286046996.9,N
1583738015.9,286046998.6,N
1583738035.7,286046999.4,N
1583738055.6,286046998.7,N
1583738075.4,286046997.1,N
1583738095.2,286046996.8,N
1583738115.1,286046999.2,N
1583738116.0,286046999.2,N
1583738135.8,286047000.7,N
1583738155.7,286047002.8,N
1583738175.5,286046999.5,N
1583738195.3,286046997.7,N
1583738215.2,286046997.7,N
1583738235.0,286046995.6,N
1583738235.9,286046995.6,N
1583738255.8,286046995.0,N
1583738275.6,286046994.9,N
1583738295.5,286046999.1,N
1583738315.3,286046998.9,N
1583738335.1,286046998.3,N
1583738355.9,286046998.6,N
1583738375.7,286046998.0,N
1583738395.5,286046995.5,N
1583738415.4,286046995.5,N
1583738435.2,286046995.8,N
1583738455.1,286046995.5,N
1583738456.0,286046995.5,N
1583738475.8,286046995.8,N
1583738495.6,286046995.6,N
1583738515.5,286046996.3,N
1583738535.3,286046995.7,N
1583738555.2,286046996.0,N
1583738575.9,286046996.0,N
1583738595.7,286046995.9,N
1583738615.6,286046993.7,Y
1583738635.4,286046997.3,P
1583738655.2,286046997.7,P
1583738675.1,286046996.8,P
1583738676.0,286046996.8,Y
1583738695.8,286047000.5,P
1583738715.7,286047001.2,N
1583738735.5,286046999.0,N
1583738755.3,286046999.6,N
1583738775.2,286046997.2,N
1583738795.0,286046997.0,N
1583738795.9,286046997.0,N
1583738815.8,286046997.8,N
1583738835.6,286046996.5,N
1583738855.4,286046996.1,N
1583738905.3,286046995.2,E
1583738915.2,286046998.3,N
1583738935.1,286047001.8,P
1583738936.0,286047001.8,N
1583738955.8,286047001.4,N
1583738975.7,286047002.5,N
1583738995.5,286047002.6,N
1583739015.3,286047001.5,N
1583739035.2,286047000.2,N
1583739055.9,286047000.0,N
1583739075.7,286047001.8,N
1583739095.6,286046999.7,N
1583739115.4,286047000.1,N
1583739135.3,286046999.7,N
1583739155.1,286047001.1,N
1583739156.0,286047001.1,N
1583739175.8,286047002.4,N
1583739195.7,286047004.3,Y
1583739215.5,286047002.8,P
1583739235.4,286047000.6,N
1583739255.2,286047000.2,N
1583739275.0,286047001.0,N
1583739275.9,286047001.0,N
1583739295.8,286047000.6,N
1583739315.6,286047001.5,N
1583739335.4,286047001.3,N
1583739355.3,286047001.9,N
1583739375.1,286047001.4,N
1583739395.9,286047004.1,Y
1583739415.7,286047002.1,P
1583739435.6,286047011.9,P
1583739455.4,286047003.3,N
1583739475.2,286047004.0,N
1583739495.1,286047001.9,N
1583739496.0,286047001.9,N
1583739515.8,286047002.0,N
1583739535.7,286047001.4,N
1583739555.5,286047002.2,N
1583739575.3,286047000.9,N
1583739595.2,286047002.6,N
1583739645.0,286047000.9,E
1583739655.9,286047000.5,N
1583739675.7,286047002.6,P
1583739695.5,286047000.3,N
1583739715.4,286047000.5,N
1583739735.2,286046999.3,N
1583739755.1,286046999.8,N
1583739756.0,286046999.8,N
1583739775.8,286047004.4,Y
1583739795.6,286047003.0,P
1583739815.5,286047002.1,N
1583739835.3,286047002.1,N
1583739855.2,286047002.3,N
1583739875.9,286047002.1,N
1583739895.7,286046998.4,N
1583739915.6,286047000.1,N
1583739935.4,286047002.6,N
1583739955.2,286047001.7,N
1583739975.1,286047001.3,N
1583739976.0,286047001.3,N
1583739995.8,286047004.0,Y
1583740015.7,286047002.5,P
1583740035.5,286047001.6,N
1583740055.3,286047002.3,P
1583740075.2,286047003.9,Y
1583740095.0,286046999.8,P
1583740095.9,286046999.8,N
1583740115.8,286046999.7,N
1583740135.6,286047000.4,N
1583740155.4,286046998.8,N
1583740175.3,286047000.2,N
1583740195.1,286047002.7,N
1583740215.9,286046998.4,N
1583740235.7,286047000.4,N
1583740255.5,286046998.5,N
1583740275.4,286047004.4,Y
1583740295.2,286047004.3,P
1583740315.1,286046999.7,N
1583740316.0,286046999.7,N
1583740335.8,286047001.6,N
1583740355.6,286046999.7,N
1583740375.5,286047002.3,N
1583740395.3,286047001.5,N
1583740415.1,286047000.1,N
1583740435.9,286046999.9,N
1583740455.7,286047001.2,N
1583740475.6,286046998.3,N
1583740495.4,286046998.4,N
1583740515.2,286046998.8,N
1583740535.1,286047001.2,N
1583740536.0,286047001.2,N
1583740555.8,286046999.1,N
1583740575.7,286046999.2,N
1583740595.5,286046999.2,N
1583740615.3,286046998.4,N
1583740635.2,286046998.7,N
1583740655.0,286046998.2,N
1583740655.9,286046998.2,N
1583740675.7,286046998.6,N
1583740695.6,286046998.7,N
1583740715.4,286047000.3,N
1583740735.3,286047002.8,N
1583740755.1,286047002.7,N
1583740756.0,286047002.7,N
1583740775.8,286047002.7,N
1583740795.7,286047000.3,N
